Weather History for Alva, OK

Change the Weather History Date:

Monday, December 17, 2012

  Actual Average Record
Temperature  
Mean Temperature 44 °F -  
Max Temperature 57 °F 50 °F 73 °F (1980)
Min Temperature 32 °F 24 °F 3 °F (1964)
Degree Days  
Heating Degree Days 20    
Moisture  
Dew Point 32 °F    
Average Humidity 78    
Maximum Humidity 100    
Minimum Humidity 31    
Precipitation  
Precipitation 0.00 in - - ()
Sea Level Pressure  
Sea Level Pressure 29.78 in    
Wind  
Wind Speed 10 mph (WSW)    
Max Wind Speed 16 mph    
Max Gust Speed 22 mph    
Visibility 8 miles    
Events      
Averages and records for this station are not official NWS values.
T = Trace of Precipitation, MM = Missing Value Source: NWS Daily Summary

Daily Weather History Graph

Daily Weather History Graph

Search for Another Location

Airport:

Trip Planner

Search our weather history database for the weather conditions in past years. The results will help you decide how hot, cold, wet, or windy it might be!

Date:

Astronomy

Dec. 17, 2012 Rise Set
Actual Time 7:41 AM CST 5:20 PM CST
Civil Twilight 7:12 AM CST 5:49 PM CST
Nautical Twilight 6:40 AM CST 6:21 PM CST
Astronomical Twilight 6:08 AM CST 6:53 PM CST
Moon 10:57 AM CST (12/17) 10:36 PM CST (12/17)
Length of Visible Light 10h 36m
Length of Day
9h 38m
Waxing Crescent, 25% of the Moon is Illuminated
Dec 17
Waxing Crescent
Dec 19
First Quarter
Dec 28
Full
Jan 4
Last Quarter
Jan 11
New

Hourly Weather History & Observations

Time (CST) Temp. Windchill Dew Point Humidity Pressure Visibility Wind Dir Wind Speed Gust Speed Precip Events Conditions
12:15 AM 35.6 °F 29.2 °F 32.0 °F 87% 29.83 in 7.0 mi NNW 8.1 mph - N/A   Overcast
12:35 AM 35.6 °F 28.6 °F 32.0 °F 87% 29.84 in 8.0 mi NW 9.2 mph - N/A   Overcast
12:55 AM 35.6 °F 29.2 °F 32.0 °F 87% 29.83 in 9.0 mi NW 8.1 mph - N/A   Overcast
1:15 AM 35.6 °F 31.7 °F 32.0 °F 87% 29.82 in 9.0 mi NNW 4.6 mph - N/A   Overcast
1:35 AM 35.6 °F 29.9 °F 32.0 °F 87% 29.82 in 9.0 mi NW 6.9 mph - N/A   Overcast
1:55 AM 35.6 °F 29.9 °F 33.8 °F 93% 29.82 in 10.0 mi NW 6.9 mph - N/A   Overcast
2:15 AM 37.4 °F 32.1 °F 33.8 °F 87% 29.82 in 10.0 mi WNW 6.9 mph - N/A   Overcast
2:35 AM 37.4 °F 31.4 °F 33.8 °F 87% 29.82 in 10.0 mi NW 8.1 mph - N/A   Overcast
2:55 AM 37.4 °F 32.1 °F 33.8 °F 87% 29.82 in 10.0 mi WNW 6.9 mph - N/A   Overcast
3:15 AM 39.2 °F 32.5 °F 35.6 °F 87% 29.82 in 10.0 mi WNW 10.4 mph - N/A   Overcast
3:35 AM 39.2 °F 33.6 °F 35.6 °F 87% 29.81 in 10.0 mi West 8.1 mph - N/A   Mostly Cloudy
3:55 AM 39.2 °F 35.9 °F 35.6 °F 87% 29.80 in 10.0 mi WNW 4.6 mph - N/A   Overcast
4:15 AM 37.4 °F 32.8 °F 35.6 °F 93% 29.81 in 10.0 mi NW 5.8 mph - N/A   Mostly Cloudy
4:35 AM 37.4 °F 32.1 °F 35.6 °F 93% 29.81 in 10.0 mi WNW 6.9 mph - N/A   Scattered Clouds
4:55 AM 35.6 °F 30.7 °F 33.8 °F 93% 29.81 in 9.0 mi West 5.8 mph - N/A   Clear
5:15 AM 32.0 °F 25.6 °F 32.0 °F 100% 29.81 in 7.0 mi WNW 6.9 mph - N/A   Clear
5:35 AM 32.0 °F 24.8 °F 32.0 °F 100% 29.81 in 7.0 mi WNW 8.1 mph - N/A   Clear
5:55 AM 32.0 °F 25.6 °F 32.0 °F 100% 29.82 in 6.0 mi West 6.9 mph - N/A   Clear
6:15 AM 32.0 °F 24.8 °F 32.0 °F 100% 29.82 in 6.0 mi West 8.1 mph - N/A   Partly Cloudy
6:35 AM 32.0 °F 24.8 °F 32.0 °F 100% 29.82 in 5.0 mi West 8.1 mph - N/A   Scattered Clouds
6:55 AM 32.0 °F 23.0 °F 32.0 °F 100% 29.83 in 5.0 mi WNW 11.5 mph - N/A   Scattered Clouds
7:15 AM 32.0 °F 24.2 °F 32.0 °F 100% 29.83 in 5.0 mi WNW 9.2 mph - N/A   Partly Cloudy
7:55 AM 32.0 °F 23.0 °F 32.0 °F 100% 29.84 in 2.0 mi West 11.5 mph - N/A   Overcast
8:15 AM 32.0 °F 22.5 °F 32.0 °F 100% 29.84 in 3.0 mi West 12.7 mph - N/A   Overcast
8:35 AM 32.0 °F 22.5 °F 32.0 °F 100% 29.85 in 0.8 mi West 12.7 mph 19.6 mph N/A   Overcast
8:55 AM 32.0 °F 22.1 °F 32.0 °F 100% 29.85 in 1.5 mi West 13.8 mph - N/A   Overcast
9:15 AM 32.0 °F 22.1 °F 32.0 °F 100% 29.85 in 1.5 mi West 13.8 mph 18.4 mph N/A   Overcast
9:35 AM 32.0 °F 22.1 °F 32.0 °F 100% 29.86 in 2.0 mi West 13.8 mph - N/A   Overcast
9:55 AM 35.6 °F 27.1 °F 35.6 °F 100% 29.86 in 4.0 mi West 12.7 mph - N/A   Overcast
10:15 AM 37.4 °F 30.3 °F 37.4 °F 100% 29.86 in 5.0 mi West 10.4 mph - N/A   Mostly Cloudy
10:35 AM 37.4 °F 29.3 °F 37.4 °F 100% 29.86 in 7.0 mi West 12.7 mph - N/A   Partly Cloudy
10:55 AM 39.2 °F 31.6 °F 37.4 °F 93% 29.86 in 9.0 mi West 12.7 mph - N/A   Clear
11:15 AM 42.8 °F 36.2 °F 35.6 °F 76% 29.85 in 10.0 mi West 12.7 mph - N/A   Clear
11:55 AM 48.2 °F - 35.6 °F 62% 29.83 in 10.0 mi West 12.7 mph - N/A   Clear
12:15 PM 48.2 °F - 35.6 °F 62% 29.82 in 10.0 mi West 11.5 mph - N/A   Clear
12:35 PM 50.0 °F - 35.6 °F 58% 29.80 in 10.0 mi WSW 12.7 mph - N/A   Clear
12:55 PM 51.8 °F - 33.8 °F 50% 29.78 in 10.0 mi WSW 12.7 mph 16.1 mph N/A   Clear
1:15 PM 53.6 °F - 32.0 °F 44% 29.77 in 10.0 mi WSW 12.7 mph - N/A   Clear
1:35 PM 53.6 °F - 32.0 °F 44% 29.76 in 10.0 mi SW 10.4 mph - N/A   Clear
1:55 PM 55.4 °F - 32.0 °F 41% 29.75 in 10.0 mi SW 10.4 mph 16.1 mph N/A   Clear
2:15 PM 55.4 °F - 28.4 °F 36% 29.73 in 10.0 mi SSW 15.0 mph 19.6 mph N/A   Clear
2:35 PM 55.4 °F - 26.6 °F 33% 29.73 in 10.0 mi SW 15.0 mph - N/A   Clear
2:55 PM 55.4 °F - 26.6 °F 33% 29.73 in 10.0 mi SW 13.8 mph - N/A   Clear
3:15 PM 57.2 °F - 26.6 °F 31% 29.73 in 10.0 mi SW 13.8 mph - N/A   Clear
3:35 PM 57.2 °F - 26.6 °F 31% 29.73 in 10.0 mi SW 16.1 mph - N/A   Clear
3:55 PM 55.4 °F - 28.4 °F 36% 29.73 in 10.0 mi SW 16.1 mph 21.9 mph N/A   Clear
6:15 PM 42.8 °F 36.6 °F 32.0 °F 66% 29.71 in 10.0 mi SSW 11.5 mph - N/A   Partly Cloudy
6:35 PM 41.0 °F 34.3 °F 32.0 °F 70% 29.71 in 10.0 mi South 11.5 mph - N/A   Partly Cloudy
6:55 PM 41.0 °F 34.3 °F 32.0 °F 70% 29.71 in 10.0 mi SSW 11.5 mph - N/A   Clear
7:15 PM 41.0 °F 34.3 °F 32.0 °F 70% 29.72 in 10.0 mi SSW 11.5 mph - N/A   Clear
7:35 PM 39.2 °F 32.0 °F 32.0 °F 75% 29.72 in 10.0 mi South 11.5 mph - N/A   Clear
7:55 PM 37.4 °F 29.8 °F 32.0 °F 81% 29.72 in 10.0 mi South 11.5 mph - N/A   Clear
8:15 PM 35.6 °F 27.1 °F 32.0 °F 87% 29.71 in 10.0 mi SSW 12.7 mph - N/A   Clear
8:35 PM 39.2 °F 31.2 °F 32.0 °F 75% 29.71 in 10.0 mi SSW 13.8 mph - N/A   Clear
8:55 PM 37.4 °F 29.3 °F 32.0 °F 81% 29.70 in 10.0 mi SSW 12.7 mph - N/A   Clear
9:15 PM 35.6 °F 27.1 °F 30.2 °F 81% 29.70 in 10.0 mi South 12.7 mph - N/A   Clear
9:55 PM 35.6 °F 27.5 °F 30.2 °F 81% 29.68 in 10.0 mi South 11.5 mph - N/A   Clear
10:15 PM 35.6 °F 27.5 °F 28.4 °F 75% 29.68 in 10.0 mi SSW 11.5 mph - N/A   Clear
10:35 PM 37.4 °F 29.3 °F 28.4 °F 70% 29.68 in 10.0 mi SSW 12.7 mph - N/A   Clear
10:55 PM 39.2 °F 31.6 °F 28.4 °F 65% 29.68 in 10.0 mi SSW 12.7 mph - N/A   Clear
11:15 PM 39.2 °F 32.5 °F 28.4 °F 65% 29.68 in 10.0 mi SSW 10.4 mph - N/A   Clear
11:35 PM 37.4 °F 29.8 °F 26.6 °F 65% 29.68 in 10.0 mi SSW 11.5 mph - N/A   Clear
11:55 PM 37.4 °F 29.8 °F 26.6 °F 65% 29.68 in 10.0 mi SSW 11.5 mph - N/A   Clear